Hourly Data Report for March 15, 2011

HALIFAX STANFIELD INT'L A
NOVA SCOTIA

44°52'48.060" N
63°30'00.050" W
145.40 m
8202250
71395
YHZ

Download Data

Hourly Data (March 2011)
Hourly Data Report for March 15, 2011
TIME
LST
Temp Definition
°C
Dew Point Definition
°C
Rel Hum Definition
%
Precip. Amount Definition
mm

Wind Dir Definition
10's deg

Wind Spd Definition
km/h
Visibility Definition
km
Stn Press Definition
kPa
Hmdx Definition


Wind Chill Definition


Weather Definition


00:00 -8.2 -10.6 83   35 11 24.1 101.08   -13 Clear
01:00 -8.6 -10.8 84   34 9 24.1 101.14   -13 Clear
02:00 -8.9 -10.9 85   35 11 24.1 101.18   -14 Mainly Clear
03:00 -8.8 -10.9 85   32 7 24.1 101.23   -13 Mainly Clear
04:00 -8.7 -10.7 85   35 4 24.1 101.26   -11 Mainly Clear
05:00 -9.0 -11.0 85   34 9 24.1 101.31   -14 Clear
06:00 -9.7 -11.6 86   33 7 24.1 101.31   -14 Mainly Clear
07:00 -8.5 -10.5 85   34 7 24.1 101.35   -12 Mainly Clear
08:00 -7.2 -9.5 84   36 9 24.1 101.41   -12 Clear
09:00 -5.9 -9.6 75   34 9 24.1 101.49   -10 Mainly Clear
10:00 -4.3 -10.3 63   35 7 24.1 101.53   -7 Mainly Clear
11:00 -3.4 -10.9 56     0 24.1 101.51     Clear
12:00 -1.7 -11.6 47   35 7 24.1 101.48   -4 Clear
13:00 -0.1 -9.7 48     0 24.1 101.42     Clear
14:00 0.8 -9.2 47   33 13 24.1 101.33     Mainly Clear
15:00 2.6 -9.5 40   18 7 24.1 101.28     Mainly Clear
16:00 3.0 -10.4 37   22 11 24.1 101.23     Mainly Clear
17:00 0.6 -8.0 52   21 32 24.1 101.24     Mainly Clear
18:00 -1.5 -8.2 60   19 22 24.1 101.27   -7 Clear
19:00 -2.6 -9.3 60   21 20 24.1 101.29   -9 Clear
20:00 -3.7 -8.4 70   20 22 24.1 101.33   -10 Clear
21:00 -4.0 -7.5 77   20 17 24.1 101.35   -10 Clear
22:00 -4.4 -7.3 80   19 11 24.1 101.34   -9 Clear
23:00 -5.0 -7.1 85   18 13 24.1 101.32   -10 Clear

Notes on Data Quality.

Legend

  • E = Estimated
  • M = Missing
  • NA = Not Available*
  • [empty] = Indicates an unobserved value
Date modified: